Regional Weather Roundup
Issued by NWS

Home | Current Version | Previous Version | Graphics & Text | Print | Product List | Glossary On
Versions: 1 2 3 4 5 6 7 8 9 10 11 12 13 14 15 16 17 18 19 20 21 22 23 24 25 26 27 28 29 30 31 32 33 34 35 36 37 38 39 40 41 42 43 44 45 46 47 48 49 50
005
ASUS43 KBIS 220110
RWRND

NORTH DAKOTA REGIONAL WEATHER ROUNDUP
NATIONAL WEATHER SERVICE BISMARCK ND
700 PM CST TUE FEB 21 2017

NOTE: "FAIR" INDICATES FEW OR NO CLOUDS BELOW 12,000 FEET WITH NO
SIGNIFICANT WEATHER AND/OR OBSTRUCTIONS TO VISIBILITY.


NDZ001>003-009>011-017-220200-
NORTHWEST NORTH DAKOTA

CITY           SKY/WX    TMP DP  RH WIND       PRES   REMARKS
WILLISTON      LGT RAIN  40  32  73 W12       29.68R
MINOT          FAIR      41  35  79 CALM      29.65R
MINOT AFB      CLOUDY    35  33  90 VRB5      29.64R
$$

NDZ018>021-031>035-040>046-220200-
SOUTHWEST NORTH DAKOTA

CITY           SKY/WX    TMP DP  RH WIND       PRES   REMARKS
BISMARCK       FAIR      42  37  82 NE8       29.65S
DICKINSON      RAIN      45  37  73 W30G41    29.69R
GARRISON         N/A     38  35  89 NW7       29.67R
HETTINGER ARPT CLOUDY    49  35  58 MISG      29.71R
$$

NDZ004>008-012>016-024-026-027-054-220200-
NORTHEAST NORTH DAKOTA

CITY           SKY/WX    TMP DP  RH WIND       PRES   REMARKS
GRAND FORKS    FOG       34  30  85 NW6       29.69R VSB 1/4
GRND FRKS AFB  FOG       32  32 100 CALM      29.69S VSB 1/2
DEVILS LAKE    CLOUDY    35  32  88 CALM      29.67R
$$

NDZ022-023-025-028>030-036>039-047>053-220200-
SOUTHEAST NORTH DAKOTA

CITY           SKY/WX    TMP DP  RH WIND       PRES   REMARKS
FARGO          CLOUDY    41  40  96 CALM      29.68R
JAMESTOWN      CLOUDY    40  35  83 W3        29.66R
$$





USA.gov is the U.S. government's official web portal to all federal, state and local government web resources and services.